Regional Weather Roundup
Issued by NWS Burlington, VT

Home | Current Version | Previous Version | Text Only | Print | Product List | Glossary On
Versions: 1 2 3 4 5 6 7 8 9 10 11 12 13 14 15 16 17 18 19 20 21 22 23 24 25 26 27 28 29 30 31 32 33 34 35 36 37 38 39 40 41 42 43 44 45 46 47 48 49 50
000
ASUS41 KBTV 260810
RWRBTV
VERMONT REGIONAL WEATHER ROUNDUP
NATIONAL WEATHER SERVICE BURLINGTON VT
400 AM EDT SAT JUL 26 2014

NOTE: "FAIR" INDICATES FEW OR NO CLOUDS BELOW 12,000 FEET WITH NO
SIGNIFICANT WEATHER AND/OR OBSTRUCTIONS TO VISIBILITY.

* THESE REPORTS ARE NOT UNDER NWS QUALITY CONTROL AND/OR DO NOT
  REPORT WEATHER SUCH AS PRECIPITATION AND FOG.

VTZ001>019-260900-
_____VERMONT_____


CITY           SKY/WX    TMP DP  RH WIND       PRES   REMARKS
BURLINGTON     SUNNY     60  55  83 SE3       29.92F
MONTPELIER     MOSUNNY   53  52  96 S3        29.99S FOG
MORRISVILLE    SUNNY     53  51  93 CALM      29.95F FOG
ST. JOHNSBURY*   N/A     55  53  93 MISG      29.94S
LYNDONVILLE*   FAIR      53  50  89 CALM      29.97S FOG
MIDDLEBURY*    FAIR      60  58  92 CALM      29.94S
RUTLAND*       SUNNY     55  52  88 SE8       29.97F
SPRINGFIELD    CLOUDY    53  53 100 CALM      29.97F FOG
HIGHGATE*      FAIR      62  54  74 S3        29.91R
NEWPORT*       FAIR     N/A N/A N/A SE3       29.94S
BENNINGTON     MOSUNNY   54  52  93 CALM      29.97F FOG
SUTTON*          N/A     55 N/A N/A MISG        N/A

_____LAKE CHAMPLAIN_____


CITY           SKY/WX    TMP DP  RH WIND       PRES   REMARKS
COLCHESTER RF*   N/A     68  59  73 S14         N/A
DIAMOND ISL*     N/A     64  57  77 S9          N/A

$$

NYZ007-026>031-035-052-083-260900-
_____NORTHERN NEW YORK_____


CITY           SKY/WX    TMP DP  RH WIND       PRES   REMARKS
PLATTSBURGH    SUNNY     60  54  80 CALM      29.91S
SARANAC LAKE   MOSUNNY   46  45  96 CALM      29.95F
MASSENA        MOSUNNY   58  54  86 SW6       29.90S
OGDENSBURG*    SUNNY     57  55  94 SW3       29.90S
POTSDAM*       PTSUNNY   61  57  88 SW6       29.91S
WATERTOWN      SUNNY     61  51  70 S5        29.92S
FT DRUM        SUNNY     58  55  90 S7        29.93S
ALBANY         MOSUNNY   63  60  90 CALM      29.96S
GLENS FALLS    MOSUNNY   55  53  93 CALM      29.95F FOG

$$
NHZ002-005-011-260900-
_____NEW HAMPSHIRE_____


CITY           SKY/WX    TMP DP  RH WIND       PRES   REMARKS
LEBANON        SUNNY     55  53  93 CALM      29.96S FOG
KEENE          CLOUDY    57  48  72 CALM      29.99R VSB 1/2
MT WASHINGTON  FOG       43  43 100 W46G52      N/A  VSB 0
PLYMOUTH       FOG       55  54  97 CALM      29.96S VSB 1/4
WHITEFIELD     SUNNY     51  48  89 CALM      29.96S

$$

_____REGIONAL QUEBEC LOCATIONS_____


CITY           SKY/WX    TMP DP  RH WIND       PRES   REMARKS
MONTREAL       MOSUNNY   63  54  72 SW12      29.87S
QUEBEC CITY    SUNNY     57  55  94 W9        29.82S
SHERBROOKE     SUNNY     52  50  93 CALM      29.91R

_____REGIONAL ONTARIO LOCATIONS_____


CITY           SKY/WX    TMP DP  RH WIND       PRES   REMARKS
OTTAWA         MOSUNNY   57  54  88 S6        29.88S

______KEY______
VSB  - VISIBILITY IN MILES
WCI  - WIND CHILL INDEX
HX   - HEAT INDEX
$$
NNNN


USA.gov is the U.S. government's official web portal to all federal, state and local government web resources and services.